Regional Weather Roundup
Issued by NWS Columbia, SC

Home | Current Version | Previous Version | Text Only | Print | Product List | Glossary On
Versions: 1 2 3 4 5 6 7 8 9 10 11 12 13 14 15 16 17 18 19 20 21 22 23 24 25 26 27 28
000
ASUS42 KCAE 240110
RWRCAE
REGIONAL WEATHER ROUNDUP
NATIONAL WEATHER SERVICE COLUMBIA SC
900 PM EDT THU MAR 23 2017

NOTE: "FAIR" INDICATES FEW OR NO CLOUDS BELOW 12,000 FEET WITH NO
SIGNIFICANT WEATHER AND/OR OBSTRUCTIONS TO VISIBILITY.

NOT ALL STATIONS ARE QUALITY CONTROLLED BY THE NATIONAL
WEATHER SERVICE. USE DATA WITH CAUTION...ESPECIALLY
DEWPOINT OBSERVATIONS.

SCZ001>056-GAZ040-063>065-077-240200-
...UPSTATE SOUTH CAROLINA...

CITY           SKY/WX    TMP DP  RH WIND       PRES   REMARKS
ANDERSON       CLOUDY    57  32  38 SE6       30.44R
LIBERTY        CLOUDY    54  33  43 SE3       30.43R
SPARTANBURG    CLEAR     50  30  46 CALM      30.45R
CLEMSON        CLOUDY    59  33  37 CALM      30.45R
GREENVILLE     CLEAR     57  28  33 SE5       30.45R
GREENWOOD      CLEAR     50  31  48 CALM      30.46R
GREER          PTCLDY    50  30  46 SE6       30.43S
ROCK HILL      CLEAR     52  24  33 SE3       30.47R
CHESTER        CLEAR     50  25  37 E3        30.47S
LAURENS        CLEAR     54  32  43 SE3       30.45R


...CENTRAL SOUTH CAROLINA...

CITY           SKY/WX    TMP DP  RH WIND       PRES   REMARKS
COLUMBIA APT   PTCLDY    56  30  37 E5        30.46R
COLUMBIA OWENS CLEAR     56  28  34 CALM      30.47R
MCENTIRE ANGB  CLEAR     52  31  45 E3        30.47R
ORANGEBURG     PTCLDY    54  35  48 E3        30.47R
SUMTER SHAW    CLEAR     52  27  38 E6        30.45R
NEWBERRY       CLEAR     50  32  50 CALM      30.49R
AIKEN          FAIR      52  32  46 E5        30.48R
BARNWELL       FAIR      59  37  44 E9        30.45R
MANNING        FAIR      52  34  50 SE8       30.49R
CAMDEN         FAIR      50  32  50 CALM      30.48S
LANCASTER      CLEAR     48  27  43 E5        30.48R
WINNSBORO      CLEAR     52  28  40 E5        30.46R


...EASTERN AND COASTAL SOUTH CAROLINA...

CITY           SKY/WX    TMP DP  RH WIND       PRES   REMARKS
MYRTLE BEACH   CLEAR     50  36  57 E13       30.53
N MYRTLE BCH   CLEAR     50  34  54 E10       30.52S
CONWAY         FAIR      45  34  65 CALM      30.52F
MARION         FAIR      46  32  57 SE6       30.52R
HARTSVILLE     FAIR      45  32  61 E5        30.48S
FLORENCE       CLEAR     51  33  50 SE9       30.50R
DARLINGTON     CLEAR     48  36  63 E5        30.50R
CHARLESTON APT PTCLDY    51  37  58 E10       30.49R
MOUNT PLEASANT LGT RAIN  52  39  62 CALM      30.49S
WALTERBORO     CLEAR     54  41  62 E10       30.48R
BEAUFORT       CLEAR     55  45  68 E9        30.47R


...EASTERN GEORGIA...

CITY           SKY/WX    TMP DP  RH WIND       PRES   REMARKS
AUGUSTA BUSH F CLEAR     58  36  43 E3        30.43R
AUGUSTA DANIEL CLEAR     60  31  33 E7        30.44R
THOMSON        CLOUDY    58  35  42 S6        30.47S
WASHINGTON     MOCLDY    55  43  62 CALM      30.42R
CLAXTON        FAIR      58  44  60 E6        30.44R
SYLVANIA       PTCLDY   N/A N/A N/A SE3       30.45R
STATESBORO     PTCLDY    59  44  56 SE3       30.44R
SAVANNAH       CLEAR     55  45  68 E8        30.46R


...SOUTHERN NORTH CAROLINA...

CITY           SKY/WX    TMP DP  RH WIND       PRES   REMARKS
CHARLOTTE      PTCLDY    54  22  28 SE10      30.47R
MONROE         CLEAR     47  25  42 CALM      30.46F
WADESBORO      CLEAR     45  32  61 CALM      30.49R
ROCKINGHAM     CLEAR     48  29  48 CALM      30.50R
RUTHERFORDTON  CLEAR     52  24  34 SE3       30.46R
ASHEVILLE      CLEAR     49  25  39 S5        30.44R

$$




USA.gov is the U.S. government's official web portal to all federal, state and local government web resources and services.